Location: Perryvale
(54.4667°N, 113.3833°W)
Time: 19:40:42
(UTC+00:00)

Transit 2A - Pass Details

Date: 28 May 2024
Orbit: 592 x 959 km, 66.7° (Epoch: 19 June)

Event Time Altitude Azimuth Distance (km) Brightness Sun altitude
Rises 09:51:44 0° 303° (WNW) 3,229 9.3 -8.2°
Reaches altitude 10° 09:54:27 10° 317° (NW) 2,367 8.7 -8.0°
Maximum altitude 09:58:58 25° 13° (NNE) 1,633 8.7 -7.6°
Drops below altitude 10° 10:03:50 10° 68° (ENE) 2,562 9.7 -7.2°
Sets 10:06:54 0° 81° (E) 3,553 10.2 -6.9°
